www.pogodaiklimat.ru

Погода и климат >> Архив погоды >> Россия >> Татарстан >> Большие Кайбицы


ПОГОДА в Больших Кайбицах

  • Прогноз погоды в Больших Кайбицах
  • Монитор погоды в Больших Кайбицах

АРХИВ ПОГОДЫ в Больших Кайбицах

Время (UTC), дата Ветер
(напр.,м/с)
 
Видим.   Явления Облачность Т
(С)
Тd
(С)
f
(%)
Тe
(С)
Тes
(С)
Комфортность P
(гПа)
Po
(гПа)
Тmin
(С)
Tmax
(С)
R
(мм)
R24
(мм)
S
(см)
06 13.09 Ю 2 20 км 9/0
[As trans]
+18.8 +9.1 53 +20 +22 1023.8 1008.6
09 13.09 Ю 5 20 км 8/0
[Ci fib]
+24.4 +6.4 31 +24 +28 комфорт 1022.2 1007.3
12 13.09 ЮЗ 3
{10}
20 км 8/4 600 м
[Sc Ci fib]
+25.5 +3.5 24 +25 +26 комфорт 1020.3 1005.6
15 13.09 Ю 3 20 км 3/0
[Ci fib]
+21.2 +2.8 30 +21 +21 комфорт 1019.2 1004.2 +26.0
18 13.09 Ю 3 20 км 3/0
[Ci fib]
+18.1 +6.6 47 +18 +18 1018.8 1003.7
21 13.09 Ю 3 20 км ясно +16.7 +6.3 50 +17 +17 1017.6 1002.4
00 14.09 Ю 4 20 км 1/0
[Ci fib]
+15.6 +5.3 50 +15 +15 1016.1 1000.9
03 14.09 Ю 2 20 км 9/9 600 м
[Sc]
+14.6 +5.6 55 +14 +14 1014.7 999.5 +14.0
06 14.09 Ю 6-10
{10}
20 км 8/0
[Ac trans Ci fib]
+19.7 +4.8 37 +20 +21 1012.7 997.8
09 14.09 Ю 9-13
{14}
20 км 9/0
[Ac trans Ci fib]
+24.9 +3.0 24 +24 +24 комфорт 1010.2 995.5
12 14.09 ЮЗ 7-13
{15}
20 км 9/9 600 м
[Sc]
+24.8 +3.3 25 +24 +24 комфорт 1009.3 994.6
15 14.09 З 4
{13}
20 км 10/10 600 м
[Sc]
+16.5 +11.0 70 +16 +16 1011.2 996.1 +25.5
18 14.09 ЮЗ 3 10 км слаб. дождь 10/10 600 м
[Sc]
+13.5 +10.2 80 +12 +12 1012.3 997.1
21 14.09 ЮЗ 3 20 км в посл. час дождь 8/6 600 м
[Sc Ci fib]
+12.5 +11.0 91 +11 +11 1012.3 997.0
00 15.09 ЮЗ 2 20 км {дождь} 6/0
[Ci fib]
+10.6 +8.6 87 +9 +9 1012.0 996.6
03 15.09 ЮЗ 2 20 км 9/9 600 м
[Sc]
+10.1 +8.0 87 +9 +9 1012.2 996.8 +9.8 2
06 15.09 ЮЗ 4 20 км 3/3 600 м
[Sc]
+12.5 +7.7 73 +11 +13 1012.5 997.2
09 15.09 З 4 20 км 6/6 1000 м
[Cu med, cong]
+13.6 +4.5 54 +12 +14 1012.1 996.8
12 15.09 ЮЗ 4 20 км 4/4 1000 м
[Cu med, cong]
+15.8 +1.9 39 +15 +17 1011.4 996.2
15 15.09 ЮЗ 3 20 км 3/3 600 м
[Sc]
+12.1 +1.9 50 +11 +11 1011.0 995.7 +15.8
18 15.09 ЮЗ 4 20 км 1/1 600 м
[Sc]
+9.5 +2.9 63 +7 +7 1011.3 995.8
21 15.09 ЮЗ 4 20 км 4/3 600 м
[Sc Ci fib]
+7.6 +3.2 74 +4 +4 1010.3 994.7
00 16.09 Ю 2 20 км 9/9 600 м
[Sc]
+7.0 +3.6 79 +5 +5 1008.9 993.4
03 16.09 Ю 3 20 км слаб. дождь 10/10 600 м
[Sc]
+7.6 +4.9 83 +5 +5 1006.4 990.9 +6.8
06 16.09 Ю 6
{10}
20 км в посл. час дождь 10/10 600 м
[Sc]
+9.7 +5.8 77 +6 +6 1003.5 988.2
09 16.09 Ю 6
{12}
10 км слаб. дождь 10/10 600 м
[Sc]
+9.9 +7.3 84 +6 +6 1001.5 986.2
12 16.09 Ю 5
{10}
20 км в посл. час дождь 10/10 600 м
[Sc]
+9.8 +7.4 85 +7 +7 999.6 984.4
15 16.09 Ю 5 20 км {дождь} 10/10 600 м
[Sc]
+10.1 +7.8 86 +7 +7 998.7 983.5 +10.4 4
18 16.09 Ю 5
{10}
20 км 8/8 600 м
[Sc]
+10.1 +7.6 84 +7 +7 998.8 983.6
21 16.09 ЮЗ 5 20 км 3/3 600 м
[Sc]
+9.5 +6.9 84 +6 +6 998.5 983.3
00 17.09 Ю 4 20 км ясно +7.8 +5.8 87 +4 +4 998.8 983.4
03 17.09 Ю 3 20 км 3/0
[Ac trans]
+6.8 +5.1 89 +4 +4 998.6 983.2 +6.4
06 17.09 Ю 4
{10}
20 км 9/4 600 м
[Sc Ci fib]
+11.7 +7.5 75 +10 +11 998.4 983.2
09 17.09 Ю 6
{11}
20 км 9/5 600 м
[Sc Ci fib]
+14.7 +6.6 58 +13 +14 998.0 983.0
12 17.09 Ю 6-10
{10}
20 км 8/8 600 м
[Sc]
+15.4 +6.2 54 +14 +14 997.3 982.4
15 17.09 Ю 4
{13}
20 км {дождь} 9/9 600 м
[Sc]
+10.0 +6.4 78 +7 +7 997.9 982.7 +16.0
18 17.09 Ю 4 20 км {дождь} 4/4 600 м
[Sc]
+8.6 +4.9 78 +6 +6 998.7 983.3
21 17.09 Ю 4 20 км ясно +7.5 +3.8 77 +4 +4 998.8 983.4
00 18.09 Ю 3 20 км 9/9 600 м
[Sc]
+6.8 +3.6 80 +4 +4 999.4 983.9
03 18.09 Ю 3 20 км 9/9 600 м
[Sc]
+6.7 +3.9 82 +4 +4 1000.0 984.6 +5.3
06 18.09 ЮЗ 3 20 км 8/8 600 м
[Sc]
+9.9 +5.7 75 +8 +9 1000.8 985.5
09 18.09 ЮЗ 6 20 км 10/10 600 м
[Sc]
+12.8 +4.2 56 +11 +11 1000.8 985.6
12 18.09 Ю 3 20 км 10/10 600 м
[Sc]
+12.9 +3.9 54 +12 +12 1000.7 985.6
15 18.09 Ю 2
{12}
20 км в посл. час гроза {ливн. осадки} 8/8 600 м
[Cb calv]
+8.3 +5.8 84 +6 +6 1000.6 985.2 +13.6 2
18 18.09 В 1 20 км {гроза} 4/0
[Ci fib]
+4.9 +3.3 89 +4 +4 999.4 983.8
21 18.09 В 2 20 км 8/0
[Ac trans Ci fib]
+5.0 +3.7 91 +2 +2 996.8 981.3
00 19.09 СЗ 2 20 км 8/6
[Sc Ci fib]
+4.0 +2.8 92 +1 +1 994.2 978.7
03 19.09 З 3 20 км 8/4
[Sc Ci fib]
+4.0 +2.6 91 0 0 993.6 978.1 +3.9
06 19.09 СЗ 5
{10}
20 км 9/9 600 м
[Sc]
+7.6 +5.3 85 +4 +4 996.5 981.2 +3.8
09 19.09 З 6-10
{11}
20 км 9/9 600 м
[Sc diur, vesp]
+10.7 +4.6 66 +8 +8 1000.2 984.9
12 19.09 ЮЗ 4
{12}
20 км 4/4 1000 м
[Cu med, cong]
+11.7 +4.6 62 +10 +11 1003.1 987.9
15 19.09 ЮЗ 3 20 км {дождь} 4/4 600 м
[Sc]
+8.7 +3.3 69 +6 +6 1006.2 990.8 +12.8 0.3
18 19.09 ЮЗ 3 20 км {дождь} 9/9 600 м
[Sc]
+7.3 +4.3 81 +4 +4 1008.2 992.7
21 19.09 ЮЗ 3 20 км 9/9 600 м
[Sc]
+6.8 +4.8 87 +4 +4 1009.6 994.0
00 20.09 З 3 20 км в посл. час дождь 10/10 600 м
[Sc]
+6.7 +5.1 90 +4 +4 1011.1 995.5
03 20.09 З 2 20 км 9/9 600 м
[Sc]
+6.0 +4.4 89 +4 +4 1012.5 996.8 +5.9

 

Местоположение метеостанции Большие Кайбицы (Татарстан, Россия): широта 55.40 долгота 48.18 высота над уровнем моря 128 м.

В архиве по умолчанию представлена погода в Больших Кайбицах за последнюю неделю. Архивные данные за месяц целиком и за предыдущие месяцы, начиная с января 2011 года, Вы можете получить, выбрав интересующий диапазон дат из раскрывающегося списка и нажав кнопку "Ввод!".


*Определитесь, кто Вы:
робот инопланетянин человек

Внимание! Время в таблицах - всемирное. Для получения местного времени необходимо прибавить поправку, которая равна 3 ч.

Смотрите также архив погоды в соседних городах и на ближайших метеорологических станциях:

Погода в Канаше (Чувашия, Россия) (47 км)
Погода в Вязовых (Татарстан, Россия) (51 км)
Погода в Батырево (Чувашия, Россия) (52 км)
Погода в Тетюшах (Татарстан, Россия) (63 км)
Погода в Камском Устье (Татарстан, Россия) (71 км)
Погода в Казани (Татарстан, Россия) (74 км)
Погода в Дрожжаном (Татарстан, Россия) (85 км)
Погода в Лаишево (Татарстан, Россия) (85 км)
Погода в Чебоксарах (Чувашия, Россия) (92 км)
Погода в Порецком (Чувашия, Россия) (120 км)

Пояснения к столбцам:

Ветер - указаны скорость ветра в м/с - средняя за 10 мин, порывы в срок и между сроками (в фигурных скобках) и направление, откуда дует ветер: С - северный, СВ - северо-восточный, В - восточный, ЮВ - юго-восточный, Ю - южный, ЮЗ - юго-западный, З - западный, СЗ - северо-западный.
Видимость - горизонтальная дальность видимости в метрах или километрах. При видимости от 1 до 10 км при отсутствии осадков обычно наблюдается дымка, при ухудшении видимости до 1 км и менее - туман. В сухую погоду видимость может ухудшаться дымом, пылью или мглою.
Явления - указаны атмосферные явления, наблюдавшиеся в срок или в последний час перед сроком; фигурными скобками обозначены явления, наблюдавшиеся между сроками (за 1-3 часа до срока); квадратными скобками обозначены град или гололедные отложения с указанием их диаметра в мм.
Облачность - указаны через наклонную черту общая и нижняя облачность в баллах и высота нижней границы облаков в метрах; квадратными скобками обозначены формы облаков: Ci - перистые, Cs - перисто-слоистые, Cc - перисто-кучевые, Ac - высококучевые, As - высокослоистые, Sc - слоисто-кучевые, Ns - слоисто-дождевые, Cu - кучевые, Cb - кучево-дождевые. Подробнее классификацию облаков см. в Атласе облаков (PDF).
T - Температура воздуха - температура, измеренная на высоте 2 м над землей.
Td - Температура точки росы - температура, при понижении до которой содержащийся в воздухе водяной пар достигнет насыщения.
f - Относительная влажность воздуха - влажноcть воздуха, измеренная на высоте 2 м над землей.
Te - Эффективная температура - температура, которую ощущает одетый по сезону человек в тени. Характеристика душности погоды. При расчете учитывается влияние влажности воздуха и скорости ветра на теплоощущения человека.
Tes - Эффективная температура на солнце - температура, которую ощущает человек, с поправкой на солнечный нагрев. Характеристика знойности погоды. Зависит от высоты солнца над горизонтом, облачности и скорости ветра. Ночью, в пасмурную погоду, а также при ветре 12 м/с и более поправка равна нулю.
P - Атмосферное давление - приведенное к уровню моря атмосферное давление.
Po - Атмосферное давление - измеренное на уровне метеостанции атмосферное давление.
Tmin - Минимальная температура - минимум температуры воздуха на высоте 2 м над землей.
Tmax - Максимальная температура - максимум температуры воздуха на высоте 2 м над землей.
R - Количество осадков - Количество выпавших осадков за период времени, мм. При наведении курсора мыши на число - период времени, за который выпало указанное количество осадков.
R24 - Количество осадков - Количество выпавших осадков за 24 часа, мм.
S - Снежный покров - Высота снежного покрова, см. При наведении курсора мыши на число - состояние снежного покрова и степень покрытия местности в баллах.